Lone Rock, WI

10:45 AM CST on December 03, 2016 (GMT -0600)
Tri-County Regional

Weather History for KLNR - March, 2014

Change the Weather History Date:

Friday, March 21, 2014

  Actual Average Record
Temperature  
Mean Temperature 39 °F -  
Max Temperature 54 °F 44 °F 82 °F (2012)
Min Temperature 25 °F 26 °F 7 °F (2013)
Degree Days  
Heating Degree Days 26    
Moisture  
Dew Point 30 °F    
Average Humidity 70    
Maximum Humidity 89    
Minimum Humidity 54    
Precipitation  
Precipitation 0.00 in - - ()
Sea Level Pressure  
Sea Level Pressure 29.86 in    
Wind  
Wind Speed 8 mph (West)    
Max Wind Speed 23 mph    
Max Gust Speed 32 mph    
Visibility 10 miles    
Events      
Averages and records for this station are not official NWS values.
T = Trace of Precipitation, MM = Missing Value Source: NWS Daily Summary

Daily Weather History Graph

Daily Weather History Graph

Search for Another Location

Airport or City:

Trip Planner

Search our weather history database for the weather conditions in past years. The results will help you decide how hot, cold, wet, or windy it might be!

Date:

Astronomy

Mar. 21, 2014 Rise Set
Actual Time 7:02 AM CDT 7:14 PM CDT
Civil Twilight 6:33 AM CDT 7:42 PM CDT
Nautical Twilight 6:00 AM CDT 8:16 PM CDT
Astronomical Twilight 5:26 AM CDT 8:50 PM CDT
Moon No Moon Rise 9:46 AM CDT (3/21)
Length of Visible Light 13h 08m
Length of Day
12h 12m
Waning Gibbous, 75% of the Moon is Illuminated
Mar 21
Waning Gibbous
Mar 23
Last Quarter
Mar 30
New
Apr 7
First Quarter
Apr 15
Full

Hourly Weather History & Observations

Time (CDT) Temp. Windchill Dew Point Humidity Pressure Visibility Wind Dir Wind Speed Gust Speed Precip Events Conditions
12:56 AM 28.0 °F - 23.0 °F 81% 29.99 in 10.0 mi Calm Calm - N/A   Clear
1:56 AM 27.0 °F - 23.0 °F 85% 29.98 in 10.0 mi Calm Calm - N/A   Clear
2:56 AM 27.0 °F 21.6 °F 24.1 °F 89% 29.97 in 10.0 mi East 4.6 mph - N/A   Clear
3:56 AM 26.1 °F - 23.0 °F 88% 29.95 in 10.0 mi Calm Calm - N/A   Clear
4:56 AM 26.1 °F 19.4 °F 23.0 °F 88% 29.94 in 10.0 mi ESE 5.8 mph - N/A   Clear
5:56 AM 25.0 °F 19.3 °F 21.9 °F 88% 29.94 in 10.0 mi ENE 4.6 mph - N/A   Clear
6:56 AM 28.0 °F 19.3 °F 24.1 °F 85% 29.91 in 10.0 mi East 9.2 mph - N/A   Clear
7:56 AM 30.9 °F 24.3 °F 26.1 °F 82% 29.94 in 10.0 mi East 6.9 mph - N/A   Clear
8:56 AM 34.0 °F 27.2 °F 28.0 °F 79% 29.92 in 10.0 mi East 8.1 mph - N/A   Clear
9:56 AM 37.9 °F 31.5 °F 30.0 °F 73% 29.88 in 9.0 mi East 9.2 mph - N/A   Clear
10:56 AM 45.0 °F 37.9 °F 30.0 °F 56% 29.84 in 10.0 mi SE 16.1 mph - N/A   Clear
11:56 AM 46.9 °F - 30.9 °F 54% 29.81 in 10.0 mi SE 13.8 mph - N/A   Partly Cloudy
12:56 PM 50.0 °F - 34.0 °F 54% 29.77 in 10.0 mi SE 11.5 mph 25.3 mph N/A   Clear
1:56 PM 50.0 °F - 35.1 °F 57% 29.73 in 10.0 mi SE 11.5 mph - N/A   Clear
2:56 PM 52.0 °F - 37.0 °F 57% 29.72 in 10.0 mi SW 10.4 mph - N/A   Partly Cloudy
3:56 PM 51.1 °F - 37.9 °F 61% 29.72 in 10.0 mi SW 6.9 mph - N/A   Overcast
4:56 PM 53.1 °F - 37.9 °F 57% 29.71 in 10.0 mi West 11.5 mph - N/A   Overcast
5:56 PM 50.0 °F - 34.0 °F 54% 29.74 in 10.0 mi WNW 21.9 mph 27.6 mph N/A   Clear
6:56 PM 46.9 °F - 32.0 °F 56% 29.77 in 10.0 mi WNW 10.4 mph - N/A   Mostly Cloudy
7:56 PM 42.1 °F 32.6 °F 33.1 °F 70% 29.82 in 10.0 mi WNW 23.0 mph 31.1 mph N/A   Overcast
8:09 PM 41.0 °F 31.9 °F 30.9 °F 67% 29.82 in 10.0 mi WNW 19.6 mph 31.1 mph N/A   Mostly Cloudy
8:42 PM 39.9 °F 31.1 °F 32.0 °F 73% 29.84 in 10.0 mi WNW 17.3 mph 32.2 mph N/A   Overcast
8:56 PM 39.9 °F 30.8 °F 32.0 °F 73% 29.86 in 10.0 mi WNW 18.4 mph 25.3 mph N/A   Overcast
9:19 PM 39.9 °F 31.1 °F 30.9 °F 70% 29.85 in 10.0 mi WNW 17.3 mph 24.2 mph N/A   Overcast
9:56 PM 39.9 °F 31.1 °F 30.9 °F 70% 29.87 in 10.0 mi West 17.3 mph - N/A   Overcast
10:56 PM 39.0 °F 29.9 °F 28.9 °F 67% 29.91 in 10.0 mi WNW 17.3 mph 27.6 mph N/A   Overcast
11:56 PM 39.0 °F 30.6 °F 27.0 °F 62% 29.94 in 10.0 mi WNW 15.0 mph 21.9 mph N/A   Overcast